Regional Weather Roundup
Issued by NWS State College, PA

Home | Current Version | Previous Version | Text Only | Print | Product List | Glossary On
Versions: 1 2 3 4 5 6 7 8 9 10 11 12 13 14 15 16 17 18 19 20 21 22 23 24 25 26 27 28 29 30 31 32 33 34 35 36 37 38 39 40 41 42 43 44 45 46 47 48 49 50
000
ASUS41 KCTP 212203
RWRCTP

REGIONAL WEATHER ROUNDUP
NATIONAL WEATHER SERVICE STATE COLLEGE PA
500 PM EST SUN JAN 21 2018

Note: "fair" indicates few or no clouds below 12,000 feet with no
significant weather and/or obstructions to visibility.

* = STATION THAT DOES NOT REPORT PRECIPITATION /E.G. RAIN...SNOW...ETC/
    THUNDER OR FOG.

PAZ002>004-007>009-013>016-020>023-029>032-212300-
WESTERN PENNSYLVANIA

CITY           SKY/WX    TMP DP  RH WIND       PRES   REMARKS
ERIE           CLOUDY    43  40  89 S5        30.05R FOG
MEADVILLE      CLOUDY    40  40 100 VRB5      30.04S FOG
FRANKLIN*      CLOUDY    40  39  97 S6        30.05S
NEW CASTLE     CLOUDY    46  42  86 SW3       30.07R
BEAVER COUNTY  NOT AVBL
BUTLER*        CLOUDY    47  41  80 SW5       30.07S
PITTSBURGH INT CLOUDY    50  42  74 SW9       30.07R
PITTSBURGH     CLOUDY    49  41  74 SW7       30.07S
INDIANA*       CLOUDY    46  45  93 SW7       30.11S
LATROBE        CLOUDY    50  45  81 SW8       30.09R
WASHINGTON CO* CLOUDY    50  43  77 S5        30.11R
$$

PAZ004>006-010>012-017>019-024>028-033>037-041-042-045-046-049>053-212300-
CENTRAL PENNSYLVANIA

CITY           SKY/WX    TMP DP  RH WIND       PRES   REMARKS
BRADFORD       FOG       39  39 100 S3        30.03S VSB 1/2
DUBOIS           N/A     41  39  93 MISG      30.05R
CLEARFIELD     FOG       40  39  97 N3        30.08R VSB<1/4
JOHNSTOWN      CLOUDY    47  43  86 S9        30.07R
ALTOONA        CLOUDY    47  43  86 S12       30.09R
STATE COLLEGE  CLOUDY    41  41 100 CALM      30.09R FOG
WILLIAMSPORT   CLOUDY    38  32  79 CALM      30.11S
SELINSGROVE    CLOUDY    40  33  76 CALM      30.12S
FT INDIANTOWN  CLOUDY    44  41  88 CALM      30.13S
CAPITAL CITY   CLOUDY    47  39  74 SE5       30.12S
HARRISBURG     CLOUDY    45  38  76 SE5       30.12R
YORK           CLOUDY    50  41  71 CALM      30.12R
$$

PAZ038>040-043-044-047-048-054-055-060>062-067>071-212300-
EASTERN PENNSYLVANIA

CITY           SKY/WX    TMP DP  RH WIND       PRES   REMARKS
SCRANTON       CLOUDY    41  32  70 CALM      30.11S
MOUNT POCONO   CLOUDY    40  35  83 CALM      30.09S
ALLENTOWN      CLOUDY    48  37  65 S3        30.14S
QUAKERTOWN*    MOCLDY    46  39  76 MISG      30.15S
READING        CLOUDY    49  39  68 S5        30.13R
LANCASTER      MOCLDY    46  38  73 SE6       30.14R
COATESVILLE    FAIR      46  37  71 S5        30.15S
POTTSTOWN      MOCLDY    49  37  63 S3        30.16S
BLUE BELL      CLOUDY    46  37  71 CALM      30.16F
DOYLESTOWN     CLOUDY    49  38  65 CALM      30.14R
WILLOW GROVE   NOT AVBL
NORTH PHILA    CLOUDY    52  38  58 CALM      30.17R
PHILADELPHIA   MOCLDY    51  37  58 SW6       30.17R
$$




USA.gov is the U.S. government's official web portal to all federal, state and local government web resources and services.